Location: Unspecified
(0.0000°N, 0.0000°E)
Time: 18:56:47
(UTC+00:00)

Vanguard 1 - Pass Details

Date: 27 November 2019
Orbit: 652 x 3832 km, 34.3° (Epoch: 09 December)

Event Time Altitude Azimuth Distance (km) Brightness Sun altitude
Rises 00:28:03 0° 216° (SW) 6,234 14.3 -66.7°
Reaches altitude 10° 00:33:02 10° 204° (SSW) 5,689 14.0 -66.2°
Maximum altitude 00:48:01 27° 152° (SSE) 5,342 13.8 -64.3°
Drops below altitude 10° 01:05:56 10° 102° (ESE) 6,900 14.6 -61.5°
Sets 01:12:46 0° 90° (E) 7,751 14.9 -60.4°
